Nashua, NH

2:13 PM EDT on April 19, 2018 (GMT -0400)
Boire

Weather History for KASH - May, 2013

Change the Weather History Date:

Friday, May 17, 2013

  Actual Average Record
Temperature  
Mean Temperature 59 °F -  
Max Temperature 68 °F 71 °F 93 °F (2017)
Min Temperature 48 °F 45 °F 29 °F (1952)
Degree Days  
Heating Degree Days 6    
Growing Degree Days 9 (Base 50)    
Moisture  
Dew Point 38 °F    
Average Humidity 48    
Maximum Humidity 71    
Minimum Humidity 26    
Precipitation  
Precipitation 0.00 in - - ()
Sea Level Pressure  
Sea Level Pressure 30.77 in    
Wind  
Wind Speed 8 mph (NNW)    
Max Wind Speed 22 mph    
Max Gust Speed 28 mph    
Visibility 10 miles    
Events      
Averages and records for this station are not official NWS values.
T = Trace of Precipitation, MM = Missing Value Source: NWS Daily Summary

Daily Weather History Graph

Daily Weather History Graph

Search for Another Location

Airport or City:

Astronomy

May. 17, 2013 Rise Set
Actual Time 5:21 AM EDT 8:04 PM EDT
Civil Twilight 4:48 AM EDT 8:37 PM EDT
Nautical Twilight 4:07 AM EDT 9:18 PM EDT
Astronomical Twilight 3:20 AM EDT 10:05 PM EDT
Moon 11:54 AM EDT (5/17) 12:51 AM EDT (5/17)
Length of Visible Light 15h 48m
Length of Day
14h 43m
Waxing Crescent, 45% of the Moon is Illuminated
May 17
Waxing Crescent
May 18
First Quarter
May 25
Full
May 31
Last Quarter
Jun 8
New

Hourly Weather History & Observations

Time (EDT) Temp. Dew Point Humidity Pressure Visibility Wind Dir Wind Speed Gust Speed Precip Events Conditions
12:51 AM 57.9 °F 41.0 °F 53% 30.58 in 10.0 mi North 5.8 mph - N/A   Clear
1:51 AM 54.9 °F 41.0 °F 60% 30.58 in 10.0 mi Calm Calm - N/A   Clear
2:51 AM 50.9 °F 41.9 °F 71% 30.60 in 10.0 mi Calm Calm - N/A   Clear
3:51 AM 52.9 °F 38.8 °F 59% 30.61 in 10.0 mi WNW 6.9 mph - N/A   Clear
4:51 AM 50.9 °F 38.8 °F 63% 30.64 in 10.0 mi NNW 6.9 mph - N/A   Clear
5:51 AM 50.0 °F 38.8 °F 66% 30.66 in 10.0 mi NW 8.1 mph - N/A   Clear
6:51 AM 52.0 °F 37.9 °F 59% 30.71 in 10.0 mi NNW 10.4 mph - N/A   Clear
7:51 AM 54.9 °F 36.9 °F 51% 30.73 in 10.0 mi NW 13.8 mph - N/A   Clear
8:51 AM 56.8 °F 37.9 °F 49% 30.74 in 10.0 mi North 18.4 mph 27.6 mph N/A   Clear
9:51 AM 59.9 °F 37.9 °F 44% 30.73 in 10.0 mi NNW 21.9 mph 25.3 mph N/A   Clear
10:51 AM 61.0 °F 38.8 °F 44% 30.76 in 10.0 mi NNW 20.7 mph 25.3 mph N/A   Mostly Cloudy
11:51 AM 61.9 °F 36.9 °F 39% 30.78 in 10.0 mi North 19.6 mph 27.6 mph N/A   Mostly Cloudy
12:51 PM 61.9 °F 37.9 °F 41% 30.78 in 10.0 mi NNW 10.4 mph 21.9 mph N/A   Mostly Cloudy
1:51 PM 64.9 °F 37.9 °F 37% 30.79 in 10.0 mi WNW 8.1 mph 27.6 mph N/A   Scattered Clouds
2:51 PM 68.0 °F 36.0 °F 31% 30.79 in 10.0 mi North 12.7 mph 25.3 mph N/A   Scattered Clouds
3:51 PM 68.0 °F 34.0 °F 28% 30.79 in 10.0 mi North 13.8 mph 20.7 mph N/A   Scattered Clouds
4:51 PM 68.0 °F 34.0 °F 28% 30.81 in 10.0 mi NNE 13.8 mph 20.7 mph N/A   Scattered Clouds
5:51 PM 68.9 °F 32.9 °F 26% 30.83 in 10.0 mi North 10.4 mph - N/A   Scattered Clouds
6:51 PM 66.9 °F 32.0 °F 27% 30.85 in 10.0 mi North 11.5 mph 17.3 mph N/A   Scattered Clouds
7:51 PM 63.9 °F 34.0 °F 33% 30.88 in 10.0 mi North 5.8 mph - N/A   Scattered Clouds
8:51 PM 56.8 °F 37.9 °F 49% 30.91 in 10.0 mi Calm Calm - N/A   Clear
9:51 PM 54.9 °F 39.9 °F 57% 30.94 in 10.0 mi Calm Calm - N/A   Clear
10:51 PM 52.0 °F 39.9 °F 63% 30.95 in 10.0 mi Calm Calm - N/A   Clear
11:51 PM 48.9 °F 39.9 °F 71% 30.97 in 10.0 mi Calm Calm - N/A   Partly Cloudy